Weather Roundup
Issued by NWS Chicago, IL

Home | Current Version | Previous Version | Graphics & Text | Print | Product List | Glossary On
Versions: 1 2 3 4 5 6 7 8 9 10 11 12 13 14 15 16 17 18 19 20 21 22 23 24 25 26 27 28 29 30 31 32 33 34 35 36 37 38 39 40 41 42 43 44 45 46 47 48 49 50
000
NZUS59 KLOT 032002
HRRLOT

CHICAGO AREA WEATHER ROUNDUP
NATIONAL WEATHER SERVICE CHICAGO/ROMEOVILLE IL
300 PM CDT SUN MAY 03 2015

NOTE: "FAIR" INDICATES FEW OR NO CLOUDS BELOW 12,000 FEET WITH NO
SIGNIFICANT WEATHER AND/OR OBSTRUCTIONS TO VISIBILITY.

* THESE STATIONS ARE NOT UNDER NWS QUALITY CONTROL. THEY ALSO MAY NOT
  REPORT WEATHER SUCH AS PRECIPITATION OR FOG.

ILZ005-006-012>014-019>023-032100-
NORTHEAST ILLINOIS

CITY           SKY/WX    TMP DP  RH WIND       PRES   REMARKS
OHARE          CLOUDY    73  50  44 S5        29.92F
MIDWAY         CLOUDY    79  45  29 S9        29.92F
AURORA         CLOUDY    79  50  36 SE10      29.91F
WAUKEGAN       CLOUDY    74  50  42 S18G25    29.92S
DUPAGE AIRPORT CLOUDY    75  52  44 SE7       29.91F
WHEELING       CLOUDY    74  48  39 S13       29.94F
NORTHERLY IS     N/A     77  41  27 SW9         N/A
$$

WIZ051-052-058>065-066-070>072-032100-
SOUTHEAST WISCONSIN

CITY           SKY/WX    TMP DP  RH WIND       PRES   REMARKS
MILWAUKEE      PTSUNNY   76  51  41 SW18G26   29.90S
KENOSHA*       CLOUDY    75  51  43 SW15G21   29.92S
RACINE*        PTSUNNY   75  51  43 SW16G22   29.92S
WAUKESHA       CLOUDY    73  52  46 SW16G23   29.91S
$$

INZ001>003-010>013-019-020-032100-
NORTHWEST INDIANA

CITY           SKY/WX    TMP DP  RH WIND       PRES   REMARKS
GARY*          PTSUNNY   81 N/A N/A SW21      29.95F
MICHIGAN CITY* NOT AVBL
RENSSELAER*    NOT AVBL
$$

LMZ740>746-032100-
SOUTHERN LAKE MICHIGAN

STATION/POSITION TIME  SKY/WX   TEMP WIND        PRES    VSBY
                                AIR  DIR/SP/G
                 (UTC)          (F)  (DEG/KT/KT) (MB)    (MI)
HARRISON CRIB    1900            74  200/ 15/ 24   N/A
BURNHAM HARBOR   2000            77  190/  6/ 17   N/A
CALUMET HARBOR   1900            78  220/  9/ 18   N/A
BURNS HARBOR     1900            76  200/ 19/ 24 1014.9F
MICHIGAN CITY    1900            76  180/ 16/ 21   N/A
$$

ABBREVIATIONS USED IN REMARKS
   TC - TEMPERATURE IN CELSIUS
  WCI - WIND CHILL INDEX
   HX - HEAT INDEX
  VSB - VISIBILITY
$$



USA.gov is the U.S. government's official web portal to all federal, state and local government web resources and services.